Orbital Elements at Epoch 2459000.5 (2020-May-31.0) TDB
Reference: JPL 12 (heliocentric ecliptic J2000)
Element | Value | Uncertainty (1-sigma) | Units |
e | .2739858685100594 | 8.1463e-08 | |
a | 2.698997350206147 | 2.2822e-08 | au |
q | 1.959510217103567 | 2.1641e-07 | au |
i | 8.974112637899362 | 6.9132e-06 | deg |
node | 310.7312150873897 | 3.5358e-05 | deg |
peri | 42.35960494588871 | 3.7038e-05 | deg |
M | 144.7784273190073 | 1.0319e-05 | deg |
tp | 2458349.166421566713 (2018-Aug-18.66642157) | 4.3861e-05 | TDB |
period | 1619.57891502251 4.43 | 2.0542e-05 5.624e-08 | d yr |
n | .2222799992398002 | 2.8193e-09 | deg/d |
Q | 3.438484483308727 | 2.9075e-08 | au |
|
| | Orbit Determination Parameters
Additional Information
|